AOJ12 LIBD-LDSP

Flight info

Callsign AOJ12
Flight time 0h 35m
Altitude 32000
Route BANAV DCT AIOSA DCT ORAKA
Aircraft CL60/M-SBDE1E2E3FGHIJ1J4J5J7M3RWXYZ/LB1V1D1

Departure

Time 2026-04-24 14:37
Airport Bari Karol Wojtyła International Airport (LIBD)

Arrival

Time 2026-04-24 15:12
Airport Split Saint Jerome Airport (LDSP)
Time Latitude Longitude Altitude Speed Heading
2026-04-24 14:21 41.13839 16.76955 134 ft 0 kts 27°
2026-04-24 14:34 41.13831 16.76975 134 ft 6 kts 179°
2026-04-24 14:34 41.13788 16.76947 135 ft 7 kts 241°
2026-04-24 14:35 41.13769 16.76879 137 ft 8 kts 253°
2026-04-24 14:35 41.13784 16.76801 138 ft 10 kts 309°
2026-04-24 14:35 41.13847 16.76760 138 ft 9 kts
2026-04-24 14:35 41.13880 16.76805 137 ft 6 kts 42°
2026-04-24 14:36 41.13938 16.76797 136 ft 10 kts 312°
2026-04-24 14:36 41.13972 16.76708 138 ft 11 kts 295°
2026-04-24 14:36 41.14000 16.76599 139 ft 12 kts 264°
2026-04-24 14:36 41.13952 16.76413 144 ft 50 kts 250°
2026-04-24 14:37 41.13705 16.75544 162 ft 146 kts 249°
2026-04-24 14:37 41.13279 16.74103 745 ft 175 kts 251°
2026-04-24 14:37 41.12857 16.72624 1733 ft 187 kts 253°
2026-04-24 14:37 41.12355 16.70881 2319 ft 211 kts 253°
2026-04-24 14:38 41.11827 16.69051 2881 ft 216 kts 255°
2026-04-24 14:38 41.11314 16.67186 3457 ft 220 kts 255°
2026-04-24 14:38 41.10787 16.65280 4042 ft 223 kts 255°
2026-04-24 14:38 41.10250 16.63338 4641 ft 226 kts 255°
2026-04-24 14:39 41.09705 16.61370 5252 ft 228 kts 255°
2026-04-24 14:39 41.09163 16.59408 5858 ft 231 kts 255°
2026-04-24 14:39 41.08909 16.57336 6465 ft 224 kts 285°
2026-04-24 14:39 41.09589 16.55567 7058 ft 217 kts 321°
2026-04-24 14:40 41.10924 16.54733 7670 ft 218 kts 354°
2026-04-24 14:40 41.12497 16.54802 8333 ft 244 kts 12°
2026-04-24 14:40 41.14117 16.55715 9138 ft 265 kts 32°
2026-04-24 14:40 41.15620 16.57157 9930 ft 273 kts 35°
2026-04-24 14:41 41.17166 16.58663 10763 ft 281 kts 35°
2026-04-24 14:41 41.18789 16.60232 11579 ft 301 kts 36°
2026-04-24 14:41 41.20527 16.61926 12383 ft 316 kts 36°
2026-04-24 14:41 41.22308 16.63663 13182 ft 323 kts 36°
2026-04-24 14:42 41.23530 16.64855 13726 ft 325 kts 36°
2026-04-24 14:42 41.25968 16.67233 14794 ft 329 kts 36°
2026-04-24 14:42 41.27802 16.69022 15596 ft 332 kts 36°
2026-04-24 14:42 41.29665 16.70841 16406 ft 335 kts 36°
2026-04-24 14:43 41.31537 16.72668 17212 ft 339 kts 36°
2026-04-24 14:43 41.33435 16.74522 17998 ft 343 kts 36°
2026-04-24 14:43 41.35344 16.76387 18811 ft 346 kts 36°
2026-04-24 14:43 41.37311 16.78310 19636 ft 350 kts 36°
2026-04-24 14:44 41.39247 16.80203 20490 ft 354 kts 37°
2026-04-24 14:44 41.41257 16.82170 21337 ft 357 kts 37°
2026-04-24 14:44 41.43258 16.84130 22139 ft 361 kts 37°
2026-04-24 14:44 41.45263 16.86094 22900 ft 365 kts 37°
2026-04-24 14:45 41.47316 16.88107 23682 ft 368 kts 37°
2026-04-24 14:45 41.49412 16.90164 24418 ft 371 kts 37°
2026-04-24 14:45 41.51504 16.92214 25166 ft 374 kts 37°
2026-04-24 14:45 41.53793 16.93859 25810 ft 381 kts 22°
2026-04-24 14:46 41.56334 16.94871 26387 ft 387 kts 18°
2026-04-24 14:46 41.58932 16.95849 26992 ft 391 kts 19°
2026-04-24 14:46 41.61557 16.96846 27568 ft 394 kts 19°
2026-04-24 14:46 41.64206 16.97852 28127 ft 397 kts 19°
2026-04-24 14:47 41.65962 16.98520 28495 ft 399 kts 19°
2026-04-24 14:47 41.69549 16.99885 29147 ft 404 kts 19°
2026-04-24 14:47 41.72216 17.01072 29617 ft 404 kts 28°
2026-04-24 14:47 41.74530 17.03075 30055 ft 402 kts 42°
2026-04-24 14:48 41.76634 17.05569 30467 ft 405 kts 44°
2026-04-24 14:48 41.78742 17.08079 30904 ft 407 kts 44°
2026-04-24 14:48 41.80862 17.10601 31245 ft 411 kts 44°
2026-04-24 14:48 41.83025 17.13177 31496 ft 416 kts 43°
2026-04-24 14:49 41.85164 17.15723 31746 ft 418 kts 43°
2026-04-24 14:49 41.87434 17.18183 31994 ft 420 kts 38°
2026-04-24 14:49 41.89904 17.20284 32046 ft 428 kts 31°
2026-04-24 14:50 41.95527 17.23266 32048 ft 442 kts 17°
2026-04-24 14:50 42.01652 17.24143 32046 ft 451 kts
2026-04-24 14:51 42.07930 17.23672 32044 ft 452 kts
2026-04-24 14:51 42.14252 17.23183 31502 ft 457 kts
2026-04-24 14:51 42.17421 17.22936 30968 ft 456 kts
2026-04-24 14:52 42.20586 17.22689 30259 ft 455 kts
2026-04-24 14:52 42.23684 17.22445 29550 ft 450 kts
2026-04-24 14:52 42.26775 17.22201 28832 ft 443 kts
2026-04-24 14:52 42.29824 17.21961 28125 ft 437 kts
2026-04-24 14:53 42.32827 17.21724 27485 ft 429 kts
2026-04-24 14:53 42.35790 17.21489 26979 ft 419 kts
2026-04-24 14:53 42.38670 17.21262 26480 ft 417 kts
2026-04-24 14:53 42.41550 17.21036 25980 ft 418 kts
2026-04-24 14:54 42.44475 17.20807 25482 ft 418 kts
2026-04-24 14:54 42.47358 17.20579 25014 ft 415 kts
2026-04-24 14:54 42.50215 17.20329 24565 ft 413 kts 357°
2026-04-24 14:54 42.53020 17.19486 24126 ft 416 kts 344°
2026-04-24 14:55 42.54794 17.18391 23824 ft 419 kts 334°
2026-04-24 14:55 42.57881 17.15203 23216 ft 422 kts 323°
2026-04-24 14:55 42.60092 17.12604 22730 ft 419 kts 323°
2026-04-24 14:55 42.62295 17.10021 22243 ft 416 kts 323°
2026-04-24 14:56 42.64465 17.07476 21756 ft 413 kts 323°
2026-04-24 14:56 42.66631 17.04935 21263 ft 410 kts 323°
2026-04-24 14:56 42.68774 17.02417 20783 ft 407 kts 323°
2026-04-24 14:56 42.70904 16.99912 20293 ft 404 kts 323°
2026-04-24 14:57 42.73001 16.97444 19825 ft 401 kts 322°
2026-04-24 14:57 42.75110 16.94960 19342 ft 398 kts 322°
2026-04-24 14:57 42.77204 16.92492 18873 ft 396 kts 322°
2026-04-24 14:57 42.79257 16.90070 18399 ft 393 kts 322°
2026-04-24 14:58 42.81314 16.87641 17938 ft 389 kts 322°
2026-04-24 14:58 42.83344 16.85242 17471 ft 384 kts 323°
2026-04-24 14:58 42.85319 16.82904 17017 ft 377 kts 322°
2026-04-24 14:58 42.87283 16.80578 16571 ft 371 kts 322°
2026-04-24 14:59 42.89218 16.78284 16136 ft 365 kts 323°
2026-04-24 14:59 42.91118 16.76030 15703 ft 359 kts 322°
2026-04-24 14:59 42.92978 16.73822 15276 ft 353 kts 323°
2026-04-24 14:59 42.94791 16.71668 14875 ft 346 kts 322°
2026-04-24 15:00 42.96612 16.69503 14451 ft 341 kts 323°
2026-04-24 15:00 42.98361 16.67422 14053 ft 335 kts 323°
2026-04-24 15:00 43.00103 16.65348 13647 ft 332 kts 323°
2026-04-24 15:00 43.01868 16.63248 13258 ft 337 kts 322°
2026-04-24 15:01 43.03609 16.61174 12853 ft 334 kts 322°
2026-04-24 15:01 43.05364 16.59079 12483 ft 333 kts 322°
2026-04-24 15:01 43.07106 16.57000 12048 ft 332 kts 322°
2026-04-24 15:01 43.08824 16.54947 11687 ft 329 kts 322°
2026-04-24 15:02 43.10541 16.52894 11258 ft 328 kts 322°
2026-04-24 15:02 43.12255 16.50841 10878 ft 325 kts 322°
2026-04-24 15:02 43.13938 16.48826 10527 ft 323 kts 322°
2026-04-24 15:02 43.15639 16.46787 10132 ft 321 kts 322°
2026-04-24 15:03 43.16755 16.45448 9849 ft 320 kts 322°
2026-04-24 15:03 43.18960 16.42801 9369 ft 316 kts 322°
2026-04-24 15:03 43.20615 16.40814 8971 ft 315 kts 322°
2026-04-24 15:03 43.22258 16.38837 8608 ft 313 kts 322°
2026-04-24 15:04 43.23872 16.36896 8240 ft 310 kts 322°
2026-04-24 15:04 43.25496 16.34936 7844 ft 308 kts 321°
2026-04-24 15:04 43.26992 16.32880 7487 ft 307 kts 315°
2026-04-24 15:04 43.28403 16.30694 7115 ft 305 kts 314°
2026-04-24 15:05 43.29802 16.28524 6751 ft 304 kts 314°
2026-04-24 15:05 43.31251 16.26447 6398 ft 300 kts 323°
2026-04-24 15:05 43.33054 16.25070 5897 ft 291 kts 344°
2026-04-24 15:05 43.34996 16.24712 5514 ft 280 kts
2026-04-24 15:06 43.36852 16.25257 4989 ft 270 kts 22°
2026-04-24 15:06 43.38425 16.26569 4582 ft 259 kts 38°
2026-04-24 15:06 43.39736 16.28161 4335 ft 243 kts 40°
2026-04-24 15:06 43.40972 16.29657 4044 ft 232 kts 39°
2026-04-24 15:07 43.42160 16.31093 3720 ft 225 kts 39°
2026-04-24 15:07 43.43323 16.32503 3414 ft 218 kts 39°
2026-04-24 15:07 43.44416 16.33832 3181 ft 205 kts 39°
2026-04-24 15:07 43.45467 16.35111 2877 ft 196 kts 38°
2026-04-24 15:08 43.46448 16.36307 2599 ft 182 kts 38°
2026-04-24 15:08 43.47347 16.37411 2333 ft 169 kts 38°
2026-04-24 15:08 43.48223 16.38472 2140 ft 168 kts 37°
2026-04-24 15:08 43.49127 16.39541 1935 ft 169 kts 36°
2026-04-24 15:09 43.50067 16.40482 1755 ft 166 kts 24°
2026-04-24 15:09 43.51094 16.40999 1604 ft 161 kts
2026-04-24 15:09 43.52185 16.41189 1349 ft 154 kts 354°
2026-04-24 15:09 43.53162 16.40773 1338 ft 148 kts 329°
2026-04-24 15:10 43.53915 16.39872 1430 ft 145 kts 311°
2026-04-24 15:10 43.54490 16.38763 1409 ft 139 kts 306°
2026-04-24 15:10 43.54967 16.37668 1215 ft 128 kts 300°
2026-04-24 15:10 43.55342 16.36570 991 ft 125 kts 291°
2026-04-24 15:11 43.55555 16.35426 811 ft 124 kts 282°
2026-04-24 15:11 43.55686 16.34253 664 ft 123 kts 276°
2026-04-24 15:11 43.55590 16.33090 471 ft 125 kts 252°
2026-04-24 15:11 43.55165 16.32058 297 ft 126 kts 235°
2026-04-24 15:12 43.54596 16.31081 109 ft 133 kts 239°
2026-04-24 15:12 43.53773 16.29577 63 ft 35 kts 233°
2026-04-24 15:12 43.53704 16.29492 63 ft 8 kts 147°
2026-04-24 15:13 43.53690 16.29563 63 ft 6 kts 128°
2026-04-24 15:13 43.53643 16.29562 62 ft 5 kts 197°
2026-04-24 15:13 43.53614 16.29520 62 ft 6 kts 250°
2026-04-24 15:13 43.53600 16.29480 63 ft 4 kts 214°
2026-04-24 15:14 43.53577 16.29504 62 ft 1 kts 121°
2026-04-24 15:14 43.53572 16.29516 62 ft 0 kts 118°